KA0WUC-13 Weather Reports


time (UTC)temp
F
wind
direction
speed
knots
gust
knots
rain 1hr
in
rain 24hr
in
rain mn
in
humidity
%
barometer
mb
20260505071015 58 44 7.0 15.6 0.00 0.00 0.00 46 1009.9
20260505070055 58 45 9.6 17.4 0.00 0.00 0.00 46 1009.9
20260505065035 58 47 7.8 16.5 0.00 0.00 0.00 46 1009.7
20260505064015 58 50 7.0 14.8 0.00 0.00 0.00 45 1009.6
20260505063015 58 46 8.7 20.9 0.00 0.00 0.00 45 1009.2
20260505062015 59 51 8.7 19.1 0.00 0.00 0.00 44 1009.0
20260505061016 59 53 8.7 18.2 0.00 0.00 0.00 44 1009.1
20260505060016 60 50 8.7 19.1 0.00 0.00 0.00 43 1009.2
20260505055017 60 51 8.7 17.4 0.00 0.00 0.00 43 1009.1
20260505054017 60 56 8.7 18.2 0.00 0.00 0.00 43 1008.8
20260505053016 61 57 8.7 19.1 0.00 0.00 0.00 43 1008.6
20260505052016 61 46 7.8 20.0 0.00 0.00 0.00 43 1008.3
20260505051016 62 50 10.4 20.0 0.00 0.00 0.00 44 1008.2
20260505041036 67 36 13.0 27.8 0.00 0.00 0.00 38 1006.8
20260505040016 70 42 12.2 23.5 0.00 0.00 0.00 32 1006.3
20260505035016 70 34 6.1 19.1 0.00 0.00 0.00 30 1005.8
20260505034016 71 26 7.8 16.5 0.00 0.00 0.00 29 1005.3
20260505033016 71 53 7.8 19.1 0.00 0.00 0.00 28 1004.8
20260505032016 72 47 8.7 16.5 0.00 0.00 0.00 27 1004.5
20260505031056 72 42 9.6 20.0 0.00 0.00 0.00 25 1004.5
20260505030016 73 24 5.2 16.5 0.00 0.00 0.00 24 1004.4
20260505025016 74 19 3.5 12.2 0.00 0.00 0.00 23 1003.9
20260505024036 74 13 6.1 15.6 0.00 0.00 0.00 22 1003.5
20260505023016 75 5 5.2 14.8 0.00 0.00 0.00 22 1003.3
20260505022016 75 359 6.1 13.0 0.00 0.00 0.00 22 1003.0
20260505021016 76 350 6.1 13.0 0.00 0.00 0.00 21 1002.7
20260505020016 77 358 7.0 17.4 0.00 0.00 0.00 20 1002.4
20260505015016 77 348 2.6 7.8 0.00 0.00 0.00 19 1002.1
20260505014016 77 348 4.3 8.7 0.00 0.00 0.00 19 1001.8
20260505013016 78 358 4.3 12.2 0.00 0.00 0.00 19 1001.9
20260505012016 78 336 5.2 11.3 0.00 0.00 0.00 19 1001.5
20260505011016 79 0.0 0.0 0.00 0.00 0.00 20 1001.4
20260505010016 80 0.0 0.0 0.00 0.00 0.00 21 1001.3
20260505005016 80 0.0 0.0 0.00 0.00 0.00 19 1001.5
20260505004016 80 0.0 0.0 0.00 0.00 0.00 19 1001.6
20260505003015 80 0.0 0.0 0.00 0.00 0.00 17 1001.7
20260505002016 81 360 0.0 2.6 0.00 0.00 0.00 17 1001.8
20260505001036 81 360 0.9 2.6 0.00 0.00 0.00 18 1001.8
20260505000015 81 360 2.6 5.2 0.00 0.00 0.00 17 1001.8
20260504235015 82 251 1.7 4.3 0.00 0.00 0.00 16 1002.0
20260504234016 82 275 0.9 2.6 0.00 0.00 0.00 17 1001.7
20260504233015 82 271 0.9 3.5 0.00 0.00 0.00 17 1001.8
20260504232015 82 256 0.9 4.3 0.00 0.00 0.00 17 1001.9
20260504231015 82 0.0 3.5 0.00 0.00 0.00 16 1001.5
20260504230036 83 229 1.7 5.2 0.00 0.00 0.00 16 1001.6
20260504225015 82 320 1.7 3.5 0.00 0.00 0.00 16 1001.6
20260504224015 83 267 4.3 11.3 0.00 0.00 0.00 16 1002.0
20260504223015 83 243 1.7 5.2 0.00 0.00 0.00 16 1002.0
20260504222015 83 244 0.9 3.5 0.00 0.00 0.00 16 1002.2
20260504221015 82 247 2.6 7.8 0.00 0.00 0.00 15 1002.2
20260504220015 83 255 3.5 8.7 0.00 0.00 0.00 15 1002.3
20260504215015 83 247 4.3 8.7 0.00 0.00 0.00 15 1002.4
20260504214015 83 175 1.7 5.2 0.00 0.00 0.00 16 1002.5
20260504213015 83 150 3.5 8.7 0.00 0.00 0.00 15 1002.6
20260504212035 83 53 2.6 6.1 0.00 0.00 0.00 15 1003.1
20260504211015 83 34 1.7 4.3 0.00 0.00 0.00 15 1003.3
20260504210016 82 328 1.7 4.3 0.00 0.00 0.00 15 1003.6
20260504205035 83 312 3.5 8.7 0.00 0.00 0.00 16 1003.7
20260504204016 84 267 4.3 10.4 0.00 0.00 0.00 15 1003.9
20260504203035 83 262 2.6 8.7 0.00 0.00 0.00 15 1003.8
20260504202035 84 345 2.6 7.8 0.00 0.00 0.00 15 1003.9
20260504201015 83 313 3.5 7.8 0.00 0.00 0.00 14 1004.0
20260504200015 83 229 2.6 6.1 0.00 0.00 0.00 15 1004.1
20260504195015 82 248 4.3 9.6 0.00 0.00 0.00 16 1004.1
20260504194015 83 295 1.7 6.1 0.00 0.00 0.00 16 1004.2
20260504193015 82 1 0.9 3.5 0.00 0.00 0.00 17 1004.3
20260504192015 81 290 3.5 7.8 0.00 0.00 0.00 17 1004.5
20260504191035 81 270 4.3 10.4 0.00 0.00 0.00 18 1004.6
20260504190035 80 276 4.3 8.7 0.00 0.00 0.00 20 1004.8
20260504185015 79 266 3.5 12.2 0.00 0.00 0.00 21 1004.8
20260504184015 80 259 5.2 9.6 0.00 0.00 0.00 20 1005.5
20260504183015 79 273 3.5 13.0 0.00 0.00 0.00 22 1005.7
20260504182015 79 294 4.3 10.4 0.00 0.00 0.00 22 1005.9
20260504181014 79 280 4.3 11.3 0.00 0.00 0.00 22 1006.0
20260504180015 79 293 4.3 11.3 0.00 0.00 0.00 22 1006.1
20260504175016 78 283 4.3 13.0 0.00 0.00 0.00 23 1006.2
20260504174015 78 270 6.1 11.3 0.00 0.00 0.00 23 1006.4
20260504173015 77 264 7.0 13.0 0.00 0.00 0.00 23 1006.7
20260504172014 77 268 7.0 13.0 0.00 0.00 0.00 24 1006.9
20260504171015 76 257 6.1 13.0 0.00 0.00 0.00 24 1007.0
20260504151017 67 260 3.5 8.7 0.00 0.00 0.00 33 1008.1
20260504141016 56 263 3.5 7.8 0.00 0.00 0.00 49 1008.1
20260504081015 48 0.0 0.0 0.00 0.00 0.00 53 1008.4